Preview of NWS' New Version of Forecast
This preview is not operational and should not be used for support decisions.

Regional Weather Roundup (RWR)

Issued by National Weather Service (NWS)

                            
000
ASUS44 KJAN 210210
RWRMS 

MISSISSIPPI HOURLY WEATHER ROUNDUP
NATIONAL WEATHER SERVICE JACKSON MS
900 PM CDT SAT APR 20 2019

NOTE: "FAIR: INDICATES FEW OR NO CLOUDS BELOW 12,000 FEET WITH NO
SIGNIFICANT WEATHER AND/OR OBSTRUCTIONS TO VISIBILITY.

MSZ001>002-007>008-010>013-018>021-025>028-034>036-210300-
NORTHWEST MISSISSIPPI
  
CITY           SKY/WX    TMP DP  RH WIND       PRES   REMARKS
BATESVILLE     FAIR      52  46  82 CALM      29.96S                  
CLARKSDALE     PTCLDY    59  43  55 CALM      29.97R                  
CLEVELAND      FAIR      59  45  59 S3        29.97S                  
GREENWOOD      FAIR      54  48  80 CALM      29.98R                  
GREENVILLE     FAIR      59  48  67 S3        29.97R                  
OLIVE BRANCH   CLEAR     54  39  58 SW7       29.94R                  
OXFORD         FAIR      50  41  71 CALM      29.98R                  
TUNICA           N/A     54  45  71 CALM      29.96S                  
WINONA         FAIR      50  44  79 CALM      29.99R                  
$$

MSZ003>006-009-014>017-022>024-029>033-037>039-210300-
NORTHEAST MISSISSIPPI
  
CITY           SKY/WX    TMP DP  RH WIND       PRES   REMARKS
ABERDEEN       FAIR      52  46  82 CALM      29.98R                  
COLUMBUS AFB   FAIR      52  42  69 W3        29.97R                  
CORINTH        FAIR      52  39  62 CALM      29.94R                  
GOLDN TRIANGLE FAIR      57  38  48 CALM      29.98R                  
STARKVILLE     FAIR      50  43  76 CALM      30.00R                  
TUPELO         FAIR      56  39  53 CALM      29.96R                  
$$

MSZ040-058-210300-
CENTRAL MISSISSIPPI
  
CITY           SKY/WX    TMP DP  RH WIND       PRES   REMARKS
JACKSON INTL   FAIR      52  42  69 E5        30.01R                  
JACKSON HAWKNS FAIR      55  45  68 CALM      30.01R                  
MADISON        FAIR      52  43  71 CALM      30.01R                  
MERIDIAN KEY   FAIR      53  44  71 CALM      30.00R                  
MERIDIAN NAS   FAIR      57  37  47 MISG      30.00R                  
RAYMOND        FAIR      52  52 100 CALM      30.01R                  
VICKSBURG VKS  CLEAR     54  48  82 CALM      30.01R                  
$$

MSZ059>079-210300-
SOUTH MISSISSIPPI
  
CITY           SKY/WX    TMP DP  RH WIND       PRES   REMARKS
HATTIESBURG    FAIR      54  43  66 CALM      30.03R                  
LAUREL         CLEAR     53  44  71 NW3       30.01R                  
MCCOMB         FAIR      52  43  71 CALM      30.03R                  
NATCHEZ        FAIR      55  48  77 CALM      30.03R                  
PINE BELT      FAIR      51  45  79 W3        30.03R                  
$$

MSZ080>082-210300-
COASTAL MISSISSIPPI
  
CITY           SKY/WX    TMP DP  RH WIND       PRES   REMARKS
BAY ST LOUIS   CLEAR     54  48  82 CALM      30.02R                  
BILOXI         FAIR      60  44  54 NW3       30.01R                  
PASCAGOULA     FAIR      52  46  80 W3        30.01R                  
GULFPORT       FAIR      57  45  64 CALM      30.01R                  
$$

LAZ007>009-015>016-023>026-210300-
NORTHEAST LOUISIANA
  
CITY           SKY/WX    TMP DP  RH WIND       PRES   REMARKS
BASTROP        FAIR      54  45  73 CALM      30.00R                  
TALLULAH/VBURG FAIR      60  49  66 CALM      30.00R                  
VIDALIA        FAIR      60  51  71 CALM      30.01R                  
$$